Weather WX

World > North America > United States > North Dakota

Dover, North Dakota Regional Weather

Lat: 47.45N, Lon: 99.12W
Wx Zone: NDZ025
Warning FLW WEATHER ALERT - (More Info. Click Here) Warning
Feedback

Dover, ND Regional Weather

Expires:201907171500;;783758
ASUS43 KBIS 171410
RWRND 

NORTH DAKOTA REGIONAL WEATHER ROUNDUP
NATIONAL WEATHER SERVICE BISMARCK ND
900 AM CDT WED JUL 17 2019

NOTE: "FAIR" INDICATES FEW OR NO CLOUDS BELOW 12,000 FEET WITH NO
SIGNIFICANT WEATHER AND/OR OBSTRUCTIONS TO VISIBILITY.



NDZ022-023-025-028>030-036>039-047>053-171500-
SOUTHEAST NORTH DAKOTA
  
CITY           SKY/WX    TMP DP  RH WIND       PRES   REMARKS
FARGO          CLOUDY    70  68  93 SE8       29.76F                  
JAMESTOWN      MOSUNNY   67  65  93 SE9       29.74F                  
$$ 

  

SKY/WX - Weather  TMP - Temperature  DP - Dew Point  RH - Relative Humidity
WIND - Wind Direction/Speed PRES - Barometric Pressure VSB - Visibility
WCI - Wind Chill Index E13G22 Wind - East Wind 13 mph/Gusts of 22 mph